Location: Bernay
(48.6766°N, 2.9386°E)
Time: 22:54:26
(UTC+00:00)

Cosmos 1869 Rocket - Pass Details

Date: 12 January 2026
Orbit: 597 x 626 km, 82.5° (Epoch: 15 February)

Event Time Altitude Azimuth Distance (km) Brightness Sun altitude
Rises 18:13:16 0° 354° (N) 2,914 7.0 -18.7°
Reaches altitude 10° 18:15:35 10° 1° (N) 1,998 6.0 -19.1°
Enters shadow 18:19:29 46° 59° (ENE) 839 3.8 -19.7°
